Simultaneous Nadir Overpasses (SNOs) Predictions

Prediction of SNOs between METOP-B and TERRA Satellite Orbit:

Table of predicted SNOs for the next 14.0 days since TLE Epoch: 6/14/2014
Index Date (METOP-B) Time (METOP-B) Lat,Lon (METOP-B) SZA (METOP-B ) Date (TERRA) Time (TERRA) Lat,Lon (TERRA) SZA (TERRA ) Distance(km) Time Diff (sec)
1 06/14/2014 17:11:03 81.32, -30.09 61.02 06/14/2014 17:11:46 81.32, -30.27 61.01 3.08 43
2 06/14/2014 18:01:42 -81.33, 137.65 118.94 06/14/2014 18:01:12 -81.33, 137.63 118.95 0.63 30
3 06/17/2014 12:45:24 81.32, 36.25 60.89 06/17/2014 12:46:00 81.32, 36.14 60.89 2.00 36
4 06/17/2014 13:36:03 -81.33,-155.99 119.07 06/17/2014 13:35:26 -81.33,-155.92 119.07 1.27 37
5 06/20/2014 08:19:44 81.33, 102.95 60.86 06/20/2014 08:20:13 81.33, 102.78 60.85 2.85 29
6 06/20/2014 09:10:24 -81.33, -89.67 119.14 06/20/2014 09:09:40 -81.33, -89.63 119.16 0.67 44
7 06/23/2014 03:54:05 81.33, 169.19 60.82 06/23/2014 03:54:26 81.33, 169.25 60.84 1.17 21
8 06/23/2014 04:44:43 -81.33, -23.00 119.12 06/23/2014 04:43:52 -81.33, -23.12 119.16 1.95 51
9 06/25/2014 23:28:25 81.32,-124.61 60.84 06/25/2014 23:28:38 81.32,-124.43 60.87 3.04 13




NCC Satellite Simultaneous Nadir Overpasses (SNOs) Prediction Service
